segment_id,date_local,uptime,ped_lft,ped_rgt,ped_total,bike_lft,bike_rgt,bike_total,car_lft,car_rgt,car_total,heavy_lft,heavy_rgt,heavy_total,v85,car_speed0,car_speed10,car_speed20,car_speed30,car_speed40,car_speed50,car_speed60,car_speed70
100024661,2017-11-01 00:00,1.0,,,,39,27,66,,,,,,,
100024661,2017-11-01 01:00,1.0,,,,16,21,37,,,,,,,
100024661,2017-11-01 02:00,1.0,,,,7,9,16,,,,,,,
100024661,2017-11-01 03:00,1.0,,,,5,6,11,,,,,,,
100024661,2017-11-01 04:00,1.0,,,,6,5,11,,,,,,,
100024661,2017-11-01 05:00,1.0,,,,14,22,36,,,,,,,
100024661,2017-11-01 06:00,1.0,,,,17,55,72,,,,,,,
100024661,2017-11-01 07:00,1.0,,,,83,171,254,,,,,,,
100024661,2017-11-01 08:00,1.0,,,,259,432,691,,,,,,,
100024661,2017-11-01 09:00,1.0,,,,257,338,595,,,,,,,
100024661,2017-11-01 10:00,1.0,,,,109,155,264,,,,,,,
100024661,2017-11-01 11:00,1.0,,,,86,100,186,,,,,,,
100024661,2017-11-01 12:00,1.0,,,,104,99,203,,,,,,,
100024661,2017-11-01 13:00,1.0,,,,123,133,256,,,,,,,
100024661,2017-11-01 14:00,1.0,,,,138,118,256,,,,,,,
100024661,2017-11-01 15:00,1.0,,,,192,158,350,,,,,,,
100024661,2017-11-01 16:00,1.0,,,,244,164,408,,,,,,,
100024661,2017-11-01 17:00,1.0,,,,309,238,547,,,,,,,
100024661,2017-11-01 18:00,1.0,,,,386,311,697,,,,,,,
100024661,2017-11-01 19:00,1.0,,,,224,217,441,,,,,,,
100024661,2017-11-01 20:00,1.0,,,,116,144,260,,,,,,,
100024661,2017-11-01 21:00,1.0,,,,76,85,161,,,,,,,
100024661,2017-11-01 22:00,1.0,,,,91,53,144,,,,,,,
100024661,2017-11-01 23:00,1.0,,,,59,38,97,,,,,,,
100024661,2017-11-02 00:00,1.0,,,,21,34,55,,,,,,,
100024661,2017-11-02 01:00,1.0,,,,10,13,23,,,,,,,
100024661,2017-11-02 02:00,1.0,,,,7,5,12,,,,,,,
100024661,2017-11-02 03:00,1.0,,,,2,1,3,,,,,,,
100024661,2017-11-02 04:00,1.0,,,,2,0,2,,,,,,,
100024661,2017-11-02 05:00,1.0,,,,8,20,28,,,,,,,
100024661,2017-11-02 06:00,1.0,,,,15,45,60,,,,,,,
100024661,2017-11-02 07:00,1.0,,,,50,113,163,,,,,,,
100024661,2017-11-02 08:00,1.0,,,,196,370,566,,,,,,,
100024661,2017-11-02 09:00,1.0,,,,253,329,582,,,,,,,
100024661,2017-11-02 10:00,1.0,,,,135,156,291,,,,,,,
100024661,2017-11-02 11:00,1.0,,,,120,102,222,,,,,,,
100024661,2017-11-02 12:00,1.0,,,,136,143,279,,,,,,,
100024661,2017-11-02 13:00,1.0,,,,115,138,253,,,,,,,
100024661,2017-11-02 14:00,1.0,,,,149,143,292,,,,,,,
100024661,2017-11-02 15:00,1.0,,,,188,181,369,,,,,,,
100024661,2017-11-02 16:00,1.0,,,,244,170,414,,,,,,,
100024661,2017-11-02 17:00,1.0,,,,324,211,535,,,,,,,
100024661,2017-11-02 18:00,1.0,,,,372,292,664,,,,,,,
100024661,2017-11-02 19:00,1.0,,,,273,235,508,,,,,,,
100024661,2017-11-02 20:00,1.0,,,,132,142,274,,,,,,,
100024661,2017-11-02 21:00,1.0,,,,122,128,250,,,,,,,
100024661,2017-11-02 22:00,1.0,,,,86,85,171,,,,,,,
100024661,2017-11-02 23:00,1.0,,,,53,69,122,,,,,,,
100024661,2017-11-03 00:00,1.0,,,,45,48,93,,,,,,,
100024661,2017-11-03 01:00,1.0,,,,26,17,43,,,,,,,
100024661,2017-11-03 02:00,1.0,,,,22,19,41,,,,,,,
100024661,2017-11-03 03:00,1.0,,,,9,10,19,,,,,,,
100024661,2017-11-03 04:00,1.0,,,,12,8,20,,,,,,,
100024661,2017-11-03 05:00,1.0,,,,15,23,38,,,,,,,
100024661,2017-11-03 06:00,1.0,,,,30,74,104,,,,,,,
100024661,2017-11-03 07:00,1.0,,,,98,190,288,,,,,,,
100024661,2017-11-03 08:00,1.0,,,,288,500,788,,,,,,,
100024661,2017-11-03 09:00,1.0,,,,340,439,779,,,,,,,
100024661,2017-11-03 10:00,1.0,,,,166,197,363,,,,,,,
100024661,2017-11-03 11:00,1.0,,,,170,139,309,,,,,,,
100024661,2017-11-03 12:00,1.0,,,,187,157,344,,,,,,,
100024661,2017-11-03 13:00,1.0,,,,191,196,387,,,,,,,
100024661,2017-11-03 14:00,1.0,,,,226,207,433,,,,,,,
100024661,2017-11-03 15:00,1.0,,,,298,232,530,,,,,,,
100024661,2017-11-03 16:00,1.0,,,,353,241,594,,,,,,,
100024661,2017-11-03 17:00,1.0,,,,374,305,679,,,,,,,
100024661,2017-11-03 18:00,1.0,,,,367,323,690,,,,,,,
100024661,2017-11-03 19:00,1.0,,,,230,291,521,,,,,,,
100024661,2017-11-03 20:00,1.0,,,,149,202,351,,,,,,,
100024661,2017-11-03 21:00,1.0,,,,104,138,242,,,,,,,
100024661,2017-11-03 22:00,1.0,,,,95,93,188,,,,,,,
100024661,2017-11-03 23:00,1.0,,,,80,75,155,,,,,,,
100024661,2017-11-04 00:00,1.0,,,,87,68,155,,,,,,,
100024661,2017-11-04 01:00,1.0,,,,52,46,98,,,,,,,
100024661,2017-11-04 02:00,1.0,,,,39,42,81,,,,,,,
100024661,2017-11-04 03:00,1.0,,,,37,22,59,,,,,,,
100024661,2017-11-04 04:00,1.0,,,,17,16,33,,,,,,,
100024661,2017-11-04 05:00,1.0,,,,15,11,26,,,,,,,
100024661,2017-11-04 06:00,1.0,,,,18,13,31,,,,,,,
100024661,2017-11-04 07:00,1.0,,,,34,26,60,,,,,,,
100024661,2017-11-04 08:00,1.0,,,,33,31,64,,,,,,,
100024661,2017-11-04 09:00,1.0,,,,87,60,147,,,,,,,
100024661,2017-11-04 10:00,1.0,,,,143,107,250,,,,,,,
100024661,2017-11-04 11:00,1.0,,,,116,123,239,,,,,,,
100024661,2017-11-04 12:00,1.0,,,,134,147,281,,,,,,,
100024661,2017-11-04 13:00,1.0,,,,164,189,353,,,,,,,
100024661,2017-11-04 14:00,1.0,,,,224,218,442,,,,,,,
100024661,2017-11-04 15:00,1.0,,,,240,245,485,,,,,,,
100024661,2017-11-04 16:00,1.0,,,,195,227,422,,,,,,,
100024661,2017-11-04 17:00,1.0,,,,179,221,400,,,,,,,
100024661,2017-11-04 18:00,1.0,,,,159,176,335,,,,,,,
100024661,2017-11-04 19:00,1.0,,,,116,162,278,,,,,,,
100024661,2017-11-04 20:00,1.0,,,,90,123,213,,,,,,,
100024661,2017-11-04 21:00,1.0,,,,81,101,182,,,,,,,
100024661,2017-11-04 22:00,1.0,,,,78,79,157,,,,,,,
100024661,2017-11-04 23:00,1.0,,,,66,60,126,,,,,,,
100024661,2017-11-05 00:00,1.0,,,,71,73,144,,,,,,,
100024661,2017-11-05 01:00,1.0,,,,42,44,86,,,,,,,
100024661,2017-11-05 02:00,1.0,,,,37,39,76,,,,,,,
100024661,2017-11-05 03:00,1.0,,,,33,22,55,,,,,,,
100024661,2017-11-05 04:00,1.0,,,,19,19,38,,,,,,,
100024661,2017-11-05 05:00,1.0,,,,9,9,18,,,,,,,
100024661,2017-11-05 06:00,1.0,,,,21,14,35,,,,,,,
100024661,2017-11-05 07:00,1.0,,,,21,10,31,,,,,,,
100024661,2017-11-05 08:00,1.0,,,,27,25,52,,,,,,,
100024661,2017-11-05 09:00,1.0,,,,55,48,103,,,,,,,
100024661,2017-11-05 10:00,1.0,,,,64,67,131,,,,,,,
100024661,2017-11-05 11:00,1.0,,,,56,81,137,,,,,,,
100024661,2017-11-05 12:00,1.0,,,,103,91,194,,,,,,,
100024661,2017-11-05 13:00,1.0,,,,107,117,224,,,,,,,
100024661,2017-11-05 14:00,1.0,,,,119,122,241,,,,,,,
100024661,2017-11-05 15:00,1.0,,,,140,130,270,,,,,,,
100024661,2017-11-05 16:00,1.0,,,,94,119,213,,,,,,,
100024661,2017-11-05 17:00,1.0,,,,68,97,165,,,,,,,
100024661,2017-11-05 18:00,1.0,,,,61,65,126,,,,,,,
100024661,2017-11-05 19:00,1.0,,,,43,42,85,,,,,,,
100024661,2017-11-05 20:00,1.0,,,,29,21,50,,,,,,,
100024661,2017-11-05 21:00,1.0,,,,25,21,46,,,,,,,
100024661,2017-11-05 22:00,1.0,,,,26,22,48,,,,,,,
100024661,2017-11-05 23:00,1.0,,,,17,14,31,,,,,,,
100024661,2017-11-06 00:00,1.0,,,,12,11,23,,,,,,,
100024661,2017-11-06 01:00,1.0,,,,7,5,12,,,,,,,
100024661,2017-11-06 02:00,1.0,,,,5,5,10,,,,,,,
100024661,2017-11-06 03:00,1.0,,,,6,2,8,,,,,,,
100024661,2017-11-06 04:00,1.0,,,,8,5,13,,,,,,,
100024661,2017-11-06 05:00,1.0,,,,15,26,41,,,,,,,
100024661,2017-11-06 06:00,1.0,,,,20,76,96,,,,,,,
100024661,2017-11-06 07:00,1.0,,,,144,274,418,,,,,,,
100024661,2017-11-06 08:00,1.0,,,,356,692,1048,,,,,,,
100024661,2017-11-06 09:00,1.0,,,,427,531,958,,,,,,,
100024661,2017-11-06 10:00,1.0,,,,195,181,376,,,,,,,
100024661,2017-11-06 11:00,1.0,,,,150,170,320,,,,,,,
100024661,2017-11-06 12:00,1.0,,,,150,146,296,,,,,,,
100024661,2017-11-06 13:00,1.0,,,,172,180,352,,,,,,,
100024661,2017-11-06 14:00,1.0,,,,234,201,435,,,,,,,
100024661,2017-11-06 15:00,1.0,,,,304,232,536,,,,,,,
100024661,2017-11-06 16:00,1.0,,,,393,285,678,,,,,,,
100024661,2017-11-06 17:00,1.0,,,,466,305,771,,,,,,,
100024661,2017-11-06 18:00,1.0,,,,534,445,979,,,,,,,
100024661,2017-11-06 19:00,1.0,,,,355,348,703,,,,,,,
100024661,2017-11-06 20:00,1.0,,,,174,210,384,,,,,,,
100024661,2017-11-06 21:00,1.0,,,,127,126,253,,,,,,,
100024661,2017-11-06 22:00,1.0,,,,101,88,189,,,,,,,
100024661,2017-11-06 23:00,1.0,,,,67,44,111,,,,,,,
100024661,2017-11-07 00:00,1.0,,,,32,45,77,,,,,,,
100024661,2017-11-07 01:00,1.0,,,,11,19,30,,,,,,,
100024661,2017-11-07 02:00,1.0,,,,6,8,14,,,,,,,
100024661,2017-11-07 03:00,1.0,,,,5,3,8,,,,,,,
100024661,2017-11-07 04:00,1.0,,,,5,5,10,,,,,,,
100024661,2017-11-07 05:00,1.0,,,,16,31,47,,,,,,,
100024661,2017-11-07 06:00,1.0,,,,44,85,129,,,,,,,
100024661,2017-11-07 07:00,1.0,,,,147,299,446,,,,,,,
100024661,2017-11-07 08:00,1.0,,,,374,709,1083,,,,,,,
100024661,2017-11-07 09:00,1.0,,,,475,572,1047,,,,,,,
100024661,2017-11-07 10:00,1.0,,,,120,228,348,,,,,,,
100024661,2017-11-07 11:00,1.0,,,,156,197,353,,,,,,,
100024661,2017-11-07 12:00,1.0,,,,177,164,341,,,,,,,
100024661,2017-11-07 13:00,1.0,,,,176,185,361,,,,,,,
100024661,2017-11-07 14:00,1.0,,,,231,197,428,,,,,,,
100024661,2017-11-07 15:00,1.0,,,,333,270,603,,,,,,,
100024661,2017-11-07 16:00,1.0,,,,396,285,681,,,,,,,
100024661,2017-11-07 17:00,1.0,,,,460,290,750,,,,,,,
100024661,2017-11-07 18:00,1.0,,,,541,454,995,,,,,,,
100024661,2017-11-07 19:00,1.0,,,,330,346,676,,,,,,,
100024661,2017-11-07 20:00,1.0,,,,175,216,391,,,,,,,
100024661,2017-11-07 21:00,1.0,,,,141,137,278,,,,,,,
100024661,2017-11-07 22:00,1.0,,,,120,107,227,,,,,,,
100024661,2017-11-07 23:00,1.0,,,,74,74,148,,,,,,,
100024661,2017-11-08 00:00,1.0,,,,35,31,66,,,,,,,
100024661,2017-11-08 01:00,1.0,,,,14,20,34,,,,,,,
100024661,2017-11-08 02:00,1.0,,,,11,10,21,,,,,,,
100024661,2017-11-08 03:00,1.0,,,,6,7,13,,,,,,,
100024661,2017-11-08 04:00,1.0,,,,2,7,9,,,,,,,
100024661,2017-11-08 05:00,1.0,,,,14,27,41,,,,,,,
100024661,2017-11-08 06:00,1.0,,,,28,94,122,,,,,,,
100024661,2017-11-08 07:00,1.0,,,,148,270,418,,,,,,,
100024661,2017-11-08 08:00,1.0,,,,380,716,1096,,,,,,,
100024661,2017-11-08 09:00,1.0,,,,426,539,965,,,,,,,
100024661,2017-11-08 10:00,1.0,,,,183,224,407,,,,,,,
100024661,2017-11-08 11:00,1.0,,,,155,153,308,,,,,,,
100024661,2017-11-08 12:00,1.0,,,,181,196,377,,,,,,,
100024661,2017-11-08 13:00,1.0,,,,204,168,372,,,,,,,
100024661,2017-11-08 14:00,1.0,,,,242,187,429,,,,,,,
100024661,2017-11-08 15:00,1.0,,,,311,234,545,,,,,,,
100024661,2017-11-08 16:00,1.0,,,,398,251,649,,,,,,,
100024661,2017-11-08 17:00,1.0,,,,468,309,777,,,,,,,
100024661,2017-11-08 18:00,1.0,,,,541,408,949,,,,,,,
100024661,2017-11-08 19:00,1.0,,,,364,365,729,,,,,,,
100024661,2017-11-08 20:00,1.0,,,,185,213,398,,,,,,,
100024661,2017-11-08 21:00,1.0,,,,109,141,250,,,,,,,
100024661,2017-11-08 22:00,1.0,,,,93,119,212,,,,,,,
100024661,2017-11-08 23:00,1.0,,,,72,67,139,,,,,,,
100024661,2017-11-09 00:00,1.0,,,,43,54,97,,,,,,,
100024661,2017-11-09 01:00,1.0,,,,17,27,44,,,,,,,
100024661,2017-11-09 02:00,1.0,,,,17,17,34,,,,,,,
100024661,2017-11-09 03:00,1.0,,,,3,7,10,,,,,,,
100024661,2017-11-09 04:00,1.0,,,,6,5,11,,,,,,,
100024661,2017-11-09 05:00,1.0,,,,14,34,48,,,,,,,
100024661,2017-11-09 06:00,1.0,,,,36,78,114,,,,,,,
100024661,2017-11-09 07:00,1.0,,,,140,267,407,,,,,,,
100024661,2017-11-09 08:00,1.0,,,,344,653,997,,,,,,,
100024661,2017-11-09 09:00,1.0,,,,376,547,923,,,,,,,
100024661,2017-11-09 10:00,1.0,,,,196,214,410,,,,,,,
100024661,2017-11-09 11:00,1.0,,,,159,169,328,,,,,,,
100024661,2017-11-09 12:00,1.0,,,,170,148,318,,,,,,,
100024661,2017-11-09 13:00,1.0,,,,156,209,365,,,,,,,
100024661,2017-11-09 14:00,1.0,,,,218,190,408,,,,,,,
100024661,2017-11-09 15:00,1.0,,,,301,239,540,,,,,,,
100024661,2017-11-09 16:00,1.0,,,,361,214,575,,,,,,,
100024661,2017-11-09 17:00,1.0,,,,478,304,782,,,,,,,
100024661,2017-11-09 18:00,1.0,,,,496,401,897,,,,,,,
100024661,2017-11-09 19:00,1.0,,,,311,279,590,,,,,,,
100024661,2017-11-09 20:00,1.0,,,,167,211,378,,,,,,,
100024661,2017-11-09 21:00,1.0,,,,110,170,280,,,,,,,
100024661,2017-11-09 22:00,1.0,,,,107,99,206,,,,,,,
100024661,2017-11-09 23:00,1.0,,,,97,72,169,,,,,,,
100024661,2017-11-10 00:00,1.0,,,,54,50,104,,,,,,,
100024661,2017-11-10 01:00,1.0,,,,33,27,60,,,,,,,
100024661,2017-11-10 02:00,1.0,,,,13,11,24,,,,,,,
100024661,2017-11-10 03:00,1.0,,,,9,5,14,,,,,,,
100024661,2017-11-10 04:00,1.0,,,,8,3,11,,,,,,,
100024661,2017-11-10 05:00,1.0,,,,9,17,26,,,,,,,
100024661,2017-11-10 06:00,1.0,,,,19,58,77,,,,,,,
100024661,2017-11-10 07:00,1.0,,,,103,204,307,,,,,,,
100024661,2017-11-10 08:00,1.0,,,,247,475,722,,,,,,,
100024661,2017-11-10 09:00,1.0,,,,260,388,648,,,,,,,
100024661,2017-11-10 10:00,1.0,,,,145,177,322,,,,,,,
100024661,2017-11-10 11:00,1.0,,,,128,118,246,,,,,,,
100024661,2017-11-10 12:00,1.0,,,,142,127,269,,,,,,,
100024661,2017-11-10 13:00,1.0,,,,152,140,292,,,,,,,
100024661,2017-11-10 14:00,1.0,,,,179,134,313,,,,,,,
100024661,2017-11-10 15:00,1.0,,,,273,180,453,,,,,,,
100024661,2017-11-10 16:00,1.0,,,,263,183,446,,,,,,,
100024661,2017-11-10 17:00,1.0,,,,254,197,451,,,,,,,
100024661,2017-11-10 18:00,1.0,,,,245,209,454,,,,,,,
100024661,2017-11-10 19:00,1.0,,,,156,154,310,,,,,,,
100024661,2017-11-10 20:00,1.0,,,,110,113,223,,,,,,,
100024661,2017-11-10 21:00,1.0,,,,88,81,169,,,,,,,
100024661,2017-11-10 22:00,1.0,,,,61,62,123,,,,,,,
100024661,2017-11-10 23:00,1.0,,,,49,65,114,,,,,,,
100024661,2017-11-11 00:00,1.0,,,,32,31,63,,,,,,,
100024661,2017-11-11 01:00,1.0,,,,27,30,57,,,,,,,
100024661,2017-11-11 02:00,1.0,,,,21,27,48,,,,,,,
100024661,2017-11-11 03:00,1.0,,,,25,15,40,,,,,,,
100024661,2017-11-11 04:00,1.0,,,,12,9,21,,,,,,,
100024661,2017-11-11 05:00,1.0,,,,8,5,13,,,,,,,
100024661,2017-11-11 06:00,1.0,,,,20,11,31,,,,,,,
100024661,2017-11-11 07:00,1.0,,,,34,12,46,,,,,,,
100024661,2017-11-11 08:00,1.0,,,,34,39,73,,,,,,,
100024661,2017-11-11 09:00,1.0,,,,69,46,115,,,,,,,
100024661,2017-11-11 10:00,1.0,,,,76,43,119,,,,,,,
100024661,2017-11-11 11:00,1.0,,,,69,60,129,,,,,,,
100024661,2017-11-11 12:00,1.0,,,,63,86,149,,,,,,,
100024661,2017-11-11 13:00,1.0,,,,93,81,174,,,,,,,
100024661,2017-11-11 14:00,1.0,,,,109,111,220,,,,,,,
100024661,2017-11-11 15:00,1.0,,,,102,116,218,,,,,,,
100024661,2017-11-11 16:00,1.0,,,,118,118,236,,,,,,,
100024661,2017-11-11 17:00,1.0,,,,109,97,206,,,,,,,
100024661,2017-11-11 18:00,1.0,,,,113,107,220,,,,,,,
100024661,2017-11-11 19:00,1.0,,,,82,110,192,,,,,,,
100024661,2017-11-11 20:00,1.0,,,,69,96,165,,,,,,,
100024661,2017-11-11 21:00,1.0,,,,50,61,111,,,,,,,
100024661,2017-11-11 22:00,1.0,,,,65,56,121,,,,,,,
100024661,2017-11-11 23:00,1.0,,,,52,59,111,,,,,,,
100024661,2017-11-12 00:00,1.0,,,,35,50,85,,,,,,,
100024661,2017-11-12 01:00,1.0,,,,33,57,90,,,,,,,
100024661,2017-11-12 02:00,1.0,,,,22,41,63,,,,,,,
100024661,2017-11-12 03:00,1.0,,,,22,16,38,,,,,,,
100024661,2017-11-12 04:00,1.0,,,,11,13,24,,,,,,,
100024661,2017-11-12 05:00,1.0,,,,11,9,20,,,,,,,
100024661,2017-11-12 06:00,1.0,,,,12,10,22,,,,,,,
100024661,2017-11-12 07:00,1.0,,,,18,12,30,,,,,,,
100024661,2017-11-12 08:00,1.0,,,,18,19,37,,,,,,,
100024661,2017-11-12 09:00,1.0,,,,35,27,62,,,,,,,
100024661,2017-11-12 10:00,1.0,,,,56,58,114,,,,,,,
100024661,2017-11-12 11:00,1.0,,,,63,68,131,,,,,,,
100024661,2017-11-12 12:00,1.0,,,,74,81,155,,,,,,,
100024661,2017-11-12 13:00,1.0,,,,92,109,201,,,,,,,
100024661,2017-11-12 14:00,1.0,,,,116,112,228,,,,,,,
100024661,2017-11-12 15:00,1.0,,,,118,121,239,,,,,,,
100024661,2017-11-12 16:00,1.0,,,,101,111,212,,,,,,,
100024661,2017-11-12 17:00,1.0,,,,114,93,207,,,,,,,
100024661,2017-11-12 18:00,1.0,,,,107,88,195,,,,,,,
100024661,2017-11-12 19:00,1.0,,,,83,87,170,,,,,,,
100024661,2017-11-12 20:00,1.0,,,,49,64,113,,,,,,,
100024661,2017-11-12 21:00,1.0,,,,45,64,109,,,,,,,
100024661,2017-11-12 22:00,1.0,,,,46,48,94,,,,,,,
100024661,2017-11-12 23:00,1.0,,,,23,47,70,,,,,,,
100024661,2017-11-13 00:00,1.0,,,,18,21,39,,,,,,,
100024661,2017-11-13 01:00,1.0,,,,16,12,28,,,,,,,
100024661,2017-11-13 02:00,1.0,,,,8,6,14,,,,,,,
100024661,2017-11-13 03:00,1.0,,,,2,2,4,,,,,,,
100024661,2017-11-13 04:00,1.0,,,,6,8,14,,,,,,,
100024661,2017-11-13 05:00,1.0,,,,11,28,39,,,,,,,
100024661,2017-11-13 06:00,1.0,,,,23,62,85,,,,,,,
100024661,2017-11-13 07:00,1.0,,,,119,202,321,,,,,,,
100024661,2017-11-13 08:00,1.0,,,,278,627,905,,,,,,,
100024661,2017-11-13 09:00,1.0,,,,351,475,826,,,,,,,
100024661,2017-11-13 10:00,1.0,,,,161,188,349,,,,,,,
100024661,2017-11-13 11:00,1.0,,,,142,126,268,,,,,,,
100024661,2017-11-13 12:00,1.0,,,,146,147,293,,,,,,,
100024661,2017-11-13 13:00,1.0,,,,156,150,306,,,,,,,
100024661,2017-11-13 14:00,1.0,,,,178,178,356,,,,,,,
100024661,2017-11-13 15:00,1.0,,,,276,181,457,,,,,,,
100024661,2017-11-13 16:00,1.0,,,,318,222,540,,,,,,,
100024661,2017-11-13 17:00,1.0,,,,415,250,665,,,,,,,
100024661,2017-11-13 18:00,1.0,,,,510,369,879,,,,,,,
100024661,2017-11-13 19:00,1.0,,,,264,301,565,,,,,,,
100024661,2017-11-13 20:00,1.0,,,,147,169,316,,,,,,,
100024661,2017-11-13 21:00,1.0,,,,109,124,233,,,,,,,
100024661,2017-11-13 22:00,1.0,,,,95,69,164,,,,,,,
100024661,2017-11-13 23:00,1.0,,,,58,41,99,,,,,,,
100024661,2017-11-14 00:00,1.0,,,,21,33,54,,,,,,,
100024661,2017-11-14 01:00,1.0,,,,12,21,33,,,,,,,
100024661,2017-11-14 02:00,1.0,,,,11,5,16,,,,,,,
100024661,2017-11-14 03:00,1.0,,,,3,8,11,,,,,,,
100024661,2017-11-14 04:00,1.0,,,,5,5,10,,,,,,,
100024661,2017-11-14 05:00,1.0,,,,12,34,46,,,,,,,
100024661,2017-11-14 06:00,1.0,,,,32,75,107,,,,,,,
100024661,2017-11-14 07:00,1.0,,,,140,240,380,,,,,,,
100024661,2017-11-14 08:00,1.0,,,,334,635,969,,,,,,,
100024661,2017-11-14 09:00,1.0,,,,381,499,880,,,,,,,
100024661,2017-11-14 10:00,1.0,,,,192,232,424,,,,,,,
100024661,2017-11-14 11:00,1.0,,,,125,160,285,,,,,,,
100024661,2017-11-14 12:00,1.0,,,,151,164,315,,,,,,,
100024661,2017-11-14 13:00,1.0,,,,175,139,314,,,,,,,
100024661,2017-11-14 14:00,1.0,,,,208,169,377,,,,,,,
100024661,2017-11-14 15:00,1.0,,,,296,237,533,,,,,,,
100024661,2017-11-14 16:00,1.0,,,,314,218,532,,,,,,,
100024661,2017-11-14 17:00,1.0,,,,429,283,712,,,,,,,
100024661,2017-11-14 18:00,1.0,,,,456,391,847,,,,,,,
100024661,2017-11-14 19:00,1.0,,,,278,276,554,,,,,,,
100024661,2017-11-14 20:00,1.0,,,,167,210,377,,,,,,,
100024661,2017-11-14 21:00,1.0,,,,113,126,239,,,,,,,
100024661,2017-11-14 22:00,1.0,,,,91,91,182,,,,,,,
100024661,2017-11-14 23:00,1.0,,,,71,60,131,,,,,,,
100024661,2017-11-15 00:00,1.0,,,,42,35,77,,,,,,,
100024661,2017-11-15 01:00,1.0,,,,17,13,30,,,,,,,
100024661,2017-11-15 02:00,1.0,,,,7,10,17,,,,,,,
100024661,2017-11-15 03:00,1.0,,,,8,4,12,,,,,,,
100024661,2017-11-15 04:00,1.0,,,,5,4,9,,,,,,,
100024661,2017-11-15 05:00,1.0,,,,14,35,49,,,,,,,
100024661,2017-11-15 06:00,1.0,,,,20,78,98,,,,,,,
100024661,2017-11-15 07:00,1.0,,,,125,225,350,,,,,,,
100024661,2017-11-15 08:00,1.0,,,,321,629,950,,,,,,,
100024661,2017-11-15 09:00,1.0,,,,376,503,879,,,,,,,
100024661,2017-11-15 10:00,1.0,,,,170,200,370,,,,,,,
100024661,2017-11-15 11:00,1.0,,,,137,132,269,,,,,,,
100024661,2017-11-15 12:00,1.0,,,,155,144,299,,,,,,,
100024661,2017-11-15 13:00,1.0,,,,169,144,313,,,,,,,
100024661,2017-11-15 14:00,1.0,,,,198,171,369,,,,,,,
100024661,2017-11-15 15:00,1.0,,,,254,210,464,,,,,,,
100024661,2017-11-15 16:00,1.0,,,,340,213,553,,,,,,,
100024661,2017-11-15 17:00,1.0,,,,370,269,639,,,,,,,
100024661,2017-11-15 18:00,1.0,,,,480,341,821,,,,,,,
100024661,2017-11-15 19:00,1.0,,,,285,293,578,,,,,,,
100024661,2017-11-15 20:00,1.0,,,,165,191,356,,,,,,,
100024661,2017-11-15 21:00,1.0,,,,110,147,257,,,,,,,
100024661,2017-11-15 22:00,1.0,,,,99,95,194,,,,,,,
100024661,2017-11-15 23:00,1.0,,,,76,71,147,,,,,,,
100024661,2017-11-16 00:00,1.0,,,,38,44,82,,,,,,,
100024661,2017-11-16 01:00,1.0,,,,27,20,47,,,,,,,
100024661,2017-11-16 02:00,1.0,,,,12,17,29,,,,,,,
100024661,2017-11-16 03:00,1.0,,,,6,5,11,,,,,,,
100024661,2017-11-16 04:00,1.0,,,,6,6,12,,,,,,,
100024661,2017-11-16 05:00,1.0,,,,14,34,48,,,,,,,
100024661,2017-11-16 06:00,1.0,,,,21,73,94,,,,,,,
100024661,2017-11-16 07:00,1.0,,,,137,221,358,,,,,,,
100024661,2017-11-16 08:00,1.0,,,,296,592,888,,,,,,,
100024661,2017-11-16 09:00,1.0,,,,354,501,855,,,,,,,
100024661,2017-11-16 10:00,1.0,,,,171,219,390,,,,,,,
100024661,2017-11-16 11:00,1.0,,,,160,134,294,,,,,,,
100024661,2017-11-16 12:00,1.0,,,,167,153,320,,,,,,,
100024661,2017-11-16 13:00,1.0,,,,171,157,328,,,,,,,
100024661,2017-11-16 14:00,1.0,,,,243,184,427,,,,,,,
100024661,2017-11-16 15:00,1.0,,,,269,219,488,,,,,,,
100024661,2017-11-16 16:00,1.0,,,,330,231,561,,,,,,,
100024661,2017-11-16 17:00,1.0,,,,395,252,647,,,,,,,
100024661,2017-11-16 18:00,1.0,,,,516,358,874,,,,,,,
100024661,2017-11-16 19:00,1.0,,,,318,308,626,,,,,,,
100024661,2017-11-16 20:00,1.0,,,,180,196,376,,,,,,,
100024661,2017-11-16 21:00,1.0,,,,137,160,297,,,,,,,
100024661,2017-11-16 22:00,1.0,,,,116,125,241,,,,,,,
100024661,2017-11-16 23:00,1.0,,,,80,97,177,,,,,,,
100024661,2017-11-17 00:00,1.0,,,,34,52,86,,,,,,,
100024661,2017-11-17 01:00,1.0,,,,24,28,52,,,,,,,
100024661,2017-11-17 02:00,1.0,,,,16,20,36,,,,,,,
100024661,2017-11-17 03:00,1.0,,,,11,9,20,,,,,,,
100024661,2017-11-17 04:00,1.0,,,,6,5,11,,,,,,,
100024661,2017-11-17 05:00,1.0,,,,10,30,40,,,,,,,
100024661,2017-11-17 06:00,1.0,,,,23,71,94,,,,,,,
100024661,2017-11-17 07:00,1.0,,,,138,211,349,,,,,,,
100024661,2017-11-17 08:00,1.0,,,,256,587,843,,,,,,,
100024661,2017-11-17 09:00,1.0,,,,355,443,798,,,,,,,
100024661,2017-11-17 10:00,1.0,,,,195,190,385,,,,,,,
100024661,2017-11-17 11:00,1.0,,,,164,169,333,,,,,,,
100024661,2017-11-17 12:00,1.0,,,,195,158,353,,,,,,,
100024661,2017-11-17 13:00,1.0,,,,243,190,433,,,,,,,
100024661,2017-11-17 14:00,1.0,,,,269,231,500,,,,,,,
100024661,2017-11-17 15:00,1.0,,,,345,260,605,,,,,,,
100024661,2017-11-17 16:00,1.0,,,,382,290,672,,,,,,,
100024661,2017-11-17 17:00,1.0,,,,391,297,688,,,,,,,
100024661,2017-11-17 18:00,1.0,,,,397,342,739,,,,,,,
100024661,2017-11-17 19:00,1.0,,,,273,249,522,,,,,,,
100024661,2017-11-17 20:00,1.0,,,,146,197,343,,,,,,,
100024661,2017-11-17 21:00,1.0,,,,102,117,219,,,,,,,
100024661,2017-11-17 22:00,1.0,,,,79,97,176,,,,,,,
100024661,2017-11-17 23:00,1.0,,,,89,107,196,,,,,,,
100024661,2017-11-18 00:00,1.0,,,,59,57,116,,,,,,,
100024661,2017-11-18 01:00,1.0,,,,46,37,83,,,,,,,
100024661,2017-11-18 02:00,1.0,,,,25,33,58,,,,,,,
100024661,2017-11-18 03:00,1.0,,,,26,20,46,,,,,,,
100024661,2017-11-18 04:00,1.0,,,,14,15,29,,,,,,,
100024661,2017-11-18 05:00,1.0,,,,15,4,19,,,,,,,
100024661,2017-11-18 06:00,1.0,,,,14,15,29,,,,,,,
100024661,2017-11-18 07:00,1.0,,,,21,17,38,,,,,,,
100024661,2017-11-18 08:00,1.0,,,,39,41,80,,,,,,,
100024661,2017-11-18 09:00,1.0,,,,86,85,171,,,,,,,
100024661,2017-11-18 10:00,1.0,,,,93,80,173,,,,,,,
100024661,2017-11-18 11:00,1.0,,,,111,124,235,,,,,,,
100024661,2017-11-18 12:00,1.0,,,,106,117,223,,,,,,,
100024661,2017-11-18 13:00,1.0,,,,115,116,231,,,,,,,
100024661,2017-11-18 14:00,1.0,,,,136,151,287,,,,,,,
100024661,2017-11-18 15:00,1.0,,,,119,162,281,,,,,,,
100024661,2017-11-18 16:00,1.0,,,,85,120,205,,,,,,,
100024661,2017-11-18 17:00,1.0,,,,74,91,165,,,,,,,
100024661,2017-11-18 18:00,1.0,,,,117,101,218,,,,,,,
100024661,2017-11-18 19:00,1.0,,,,68,104,172,,,,,,,
100024661,2017-11-18 20:00,1.0,,,,64,78,142,,,,,,,
100024661,2017-11-18 21:00,1.0,,,,46,60,106,,,,,,,
100024661,2017-11-18 22:00,1.0,,,,34,49,83,,,,,,,
100024661,2017-11-18 23:00,1.0,,,,37,35,72,,,,,,,
100024661,2017-11-19 00:00,1.0,,,,35,42,77,,,,,,,
100024661,2017-11-19 01:00,1.0,,,,32,32,64,,,,,,,
100024661,2017-11-19 02:00,1.0,,,,14,39,53,,,,,,,
100024661,2017-11-19 03:00,1.0,,,,18,18,36,,,,,,,
100024661,2017-11-19 04:00,1.0,,,,8,8,16,,,,,,,
100024661,2017-11-19 05:00,1.0,,,,10,4,14,,,,,,,
100024661,2017-11-19 06:00,1.0,,,,14,9,23,,,,,,,
100024661,2017-11-19 07:00,1.0,,,,22,4,26,,,,,,,
100024661,2017-11-19 08:00,1.0,,,,19,15,34,,,,,,,
100024661,2017-11-19 09:00,1.0,,,,30,42,72,,,,,,,
100024661,2017-11-19 10:00,1.0,,,,33,33,66,,,,,,,
100024661,2017-11-19 11:00,1.0,,,,41,33,74,,,,,,,
100024661,2017-11-19 12:00,1.0,,,,50,47,97,,,,,,,
100024661,2017-11-19 13:00,1.0,,,,64,63,127,,,,,,,
100024661,2017-11-19 14:00,1.0,,,,65,66,131,,,,,,,
100024661,2017-11-19 15:00,1.0,,,,71,63,134,,,,,,,
100024661,2017-11-19 16:00,1.0,,,,77,77,154,,,,,,,
100024661,2017-11-19 17:00,1.0,,,,55,49,104,,,,,,,
100024661,2017-11-19 18:00,1.0,,,,60,72,132,,,,,,,
100024661,2017-11-19 19:00,1.0,,,,52,55,107,,,,,,,